Regional Weather Roundup
Issued by NWS

Home | Current Version | Previous Version | Graphics & Text | Print | Product List | Glossary On
Versions: 1 2 3 4 5 6 7 8 9 10 11 12 13 14 15 16 17 18 19 20 21 22 23 24 25 26 27 28 29 30 31 32 33 34 35 36 37 38 39 40 41 42 43 44 45 46 47 48 49 50
000
ASUS45 KPSR 191510
RWRAZ

ARIZONA REGIONAL HOURLY WEATHER ROUNDUP
NATIONAL WEATHER SERVICE PHOENIX AZ
800 AM MST FRI SEP 19 2014

NOTE: FAIR INDICATES FEW OR NO CLOUDS BELOW 12,000 FEET WITH NO
SIGNIFICANT WEATHER AND/OR OBSTRUCTIONS TO VISIBILITY.

AZZ001>003-036-191600-
NORTHWEST ARIZONA

CITY           SKY/WX    TMP DP  RH WIND       PRES   REMARKS
BULLHEAD CITY  SUNNY     82  52  34 CALM      29.79R
KINGMAN        SUNNY     75  51  43 SE10      29.95R
$$

AZZ004>008-015-016-018-191600-
NORTH CENTRAL ARIZONA

CITY           SKY/WX    TMP DP  RH WIND       PRES   REMARKS
GRAND CANYON   PTSUNNY   59  54  83 CALM      30.19R
PRESCOTT       PTSUNNY   67  59  75 S3        30.08R
FLAGSTAFF      CLOUDY    61  57  87 SW7       30.20R
PAYSON         CLOUDY    66  63  88 CALM      30.11R
PAGE           MOSUNNY   82  47  29 CALM      29.99R
$$

AZZ009>014-017-191600-
NORTHEAST ARIZONA

CITY           SKY/WX    TMP DP  RH WIND       PRES   REMARKS
WINSLOW        SUNNY     67  59  75 E8        30.07R
SAINT JOHNS    SUNNY     64  57  78 CALM      30.11R
WINDOW ROCK    SUNNY     57  46  66 CALM      30.18
SHOW LOW       MOSUNNY   63  55  77 CALM      30.18R
$$

AZZ023-191600-
GREATER PHOENIX AREA

CITY           SKY/WX    TMP DP  RH WIND       PRES   REMARKS
PHOENIX        PTSUNNY   85  70  60 E5        29.83R
BUCKEYE          N/A     79  72  78 W5        29.84R
GLENDALE       PTSUNNY   82  70  65 CALM      29.84R
DEER VALLEY    CLOUDY    82  69  64 S3        29.85R
SCOTTSDALE     PTSUNNY   83  69  62 CALM      29.87R
MESA-FALCON    MOSUNNY   86  70  58 SE6       29.85R
MESA-GATEWAY   MOSUNNY   81  72  74 SE7       29.86
CHANDLER       PTSUNNY   82  73  74 CALM      29.85R
$$

AZZ027-028-191600-
SOUTHWEST MARICOPA COUNTY AND PINAL COUNTY

CITY           SKY/WX    TMP DP  RH WIND       PRES   REMARKS
CASA GRANDE    MOSUNNY   81  70  69 S3        29.86R
$$

AZZ503-504-507>509-191600-
SOUTHEAST ARIZONA

CITY           SKY/WX    TMP DP  RH WIND       PRES   REMARKS
TUCSON         CLOUDY    75  70  84 SE3       29.95R
RYAN FIELD       N/A     75  72  88 CALM      29.95R
NOGALES        CLOUDY    68  66  93 S5        30.02R
DOUGLAS        CLOUDY    69  66  90 SE3       30.04R
SAFFORD        CLOUDY    70  66  87 SE3       29.96R
$$

AZZ020-021-025-026-031-191600-
SOUTHWEST ARIZONA

CITY           SKY/WX    TMP DP  RH WIND       PRES   REMARKS
YUMA           MOSUNNY   85  55  35 CALM      29.79R
$$

CAZ031-033-041-043-047-048-061-191600-
SOUTHERN CALIFORNIA

CITY           SKY/WX    TMP DP  RH WIND       PRES   REMARKS
DOWNTOWN L.A.  CLOUDY    70  62  76 CALM      29.90R
L.A. AIRPORT   PTSUNNY   69  61  75 NW6       29.91R
SAN DIEGO      PTSUNNY   70  65  84 NW7       29.92R
BURBANK        CLOUDY    68  60  75 E3        29.91R
ONTARIO        CLOUDY    69  60  73 SW5       29.91R
RIVERSIDE      CLOUDY    69  61  75 W3        29.92R
PALM SPRINGS   SUNNY     77  60  55 CALM      29.81R
EL CENTRO NAS  MOSUNNY   82  58  43 W9        29.77R
IMPERIAL       SUNNY     80  59  48 W6        29.77R
BLYTHE         SUNNY     79  60  52 CALM      29.78R
NEEDLES        SUNNY     86  52  30 SW6       29.79R
$$

NVZ020-UTZ003-191600-
SOUTHERN NEVADA-UTAH

CITY           SKY/WX    TMP DP  RH WIND       PRES   REMARKS
LAS VEGAS      MOSUNNY   78  47  33 S10       29.83R
SALT LAKE CITY MOSUNNY   65  58  78 SW3       30.03R
$$

NMZ009-TXZ055-191600-
NEW MEXICO-WEST TEXAS

CITY           SKY/WX    TMP DP  RH WIND       PRES   REMARKS
ALBUQUERQUE    PTSUNNY   70  56  61 S7        30.11R
EL PASO        PTSUNNY   68  64  87 S3        30.00S
$$


........................KEY........................
SKY/WX - SKY CONDITION/WEATHER
TMP    - TEMPERATURE IN FAHRENHEIT
DP     - DEW POINT IN FAHRENHEIT
RH     - RELATIVE HUMIDITY IN PERCENT
WIND   - DIRECTION AND SPEED IN MILES PER HOUR (MPH)
VRB    - VARIABLE WIND DIRECTION
PRES   - MEAN SEA LEVEL PRESSURE IN INCHES OF MERCURY
         F - FALLING PRESSURE   R - RISING PRESSURE
         S - STEADY PRESSURE
VSB    - VISIBILITY IN MILES
HX     - HEAT INDEX IN FAHRENHEIT
WCI    - WIND CHILL INDEX IN FAHRENHEIT
TC     - TEMPERATURE IN CELSIUS WHICH IS ALSO KNOWN AS
         TEMPERATURE IN CENTIGRADE
AFB    - AIR FORCE BASE
         LUKE AFB IS LUKE AIR FORCE BASE
         DAVIS-MONTHAN IS DAVIS-MONTHAN AIR FORCE BASE
NAS    - NAVAL AIR STATION
         EL CENTRO NAS IS EL CENTRO NAVAL AIR STATION
N/A    - NOT AVAILABLE


USA.gov is the U.S. government's official web portal to all federal, state and local government web resources and services.